星链-30142 (STARLINK-30142 )

导读 | 豆包AI

STARLINK-30142是美国SpaceX公司星链(Starlink)项目中的一颗低轨通信卫星,于北京时间2023年6月4日发射入轨,属于星链v2.0 mini卫星。作为第三代星链卫星,它运行在近550公里的近地轨道,配备先进推进系统与激光通信设备,旨在为全球提供高速低延迟互联网服务,帮助实现偏远地区宽带接入,推进全球互联网覆盖普及,目前仍在轨正常运行。

基本信息
目录编号:
56836
目录名称:
STARLINK-30142
国际标识:
2023-079P
轨道中心:
EARTH
卫星名称:
星链-30142
卫星全名:
星链-30142 (STARLINK-30142 )
卫星状态:
在轨 (已飞行1061 天)
发射日期:
2023-06-04 UTC
国别 :
美国 (US)
星等 :
--
轨道信息
数据来源 国际轨道数据
星历时间: 2026-04-30T12:43:34+0800
10小时前
查看轨道信息
半长轴: 6861.193km
偏心率: 0.0001108
轨道倾角: 43.003°
近地点辐角 269.736°
升交点赤经 172.920°
平近点角 90.336°
近地点: 482.295km
远地点: 483.817km
周期: 94.267分钟
每日圈数: 15.275779
详细信息
固有亮度:
5
最大亮度:
0.5
卫星平台:
Starlink v2.0 mini
覆盖范围:
全球
运营商:
太空探索技术公司
运营商所在国:
美国
制造商(研发单位):
太空探索技术公司
制造商所在国:
美国
使用方式:
暂无
卫星简介
星链(Starlink)计划是由太空探索技术公司(SpaceX)提出的一个巨型低轨卫星互联网星座项目,计划在2019年至2024年间在太空搭建由约1.2万颗卫星组成的“星链”网络,其中1584颗将部署在地球上空550千米处的近地轨道,并从2020年开始工作。该卫星仍在工作。
2D轨道图
3D轨道图
轨道高度分析图
轨道倾角分析图
轨道综合分析图
查看轨道综合分析图